Miscellaneous Local Product
Issued by NWS Hastings, NE

Home | Current Version | Previous Version | Text Only | Print | Product List | Glossary Off
Versions: 1 2 3 4 5 6 7 8 9 10 11 12 13 14 15 16 17 18 19 20 21 22 23 24 25 26 27 28 29 30 31 32 33 34 35 36 37 38 39 40 41 42 43 44 45 46 47 48 49 50

263
AXUS43 KGID 180102
MISGRI

GID CWA HOURLY WEATHER ROUNDUP
NATIONAL WEATHER SERVICE HASTINGS NE
800 PM CDT THU AUG 17 2017

NOTE: "FAIR" INDICATES FEW OR NO CLOUDS BELOW 12,000 FEET WITH NO
SIGNIFICANT WEATHER AND/OR OBSTRUCTIONS TO VISIBILITY.

...SOUTH CENTRAL NEBRASKA...

CITY           SKY/WX    TMP DP  RH WIND       PRES   REMARKS
GRAND ISLAND   CLEAR     76  67  73 S6        29.94F
HASTINGS       CLEAR     80  62  54 S5        29.95F
KEARNEY        CLEAR     74  65  73 S7        29.95F
ORD            CLEAR     79  58  48 S9        29.89F
YORK           CLEAR     75  68  78 CALM      29.93F
AURORA         CLEAR     78  65  64 S3        29.93F
LEXINGTON      CLOUDY    77  63  61 SE8       29.93F
HOLDREGE       CLEAR     74  63  67 SE7       29.95F
HEBRON         CLEAR     78  67  66 S3        29.94F

...NEBRASKA PANHANDLE...

CITY           SKY/WX    TMP DP  RH WIND       PRES   REMARKS
CHADRON        CLOUDY    72  52  49 N21       29.97F
ALLIANCE       CLEAR     77  54  44 MISG      29.93F
SCOTTSBLUFF    CLEAR     82  53  36 S7        29.95S
SIDNEY         CLEAR     81  45  28 SW12      30.01F

...WESTERN AND NORTH CENTRAL NEBRASKA...

CITY           SKY/WX    TMP DP  RH WIND       PRES   REMARKS
VALENTINE      CLEAR     84  51  31 S9        29.85S
AINSWORTH      CLEAR     80  60  50 S9        29.88S
ONEILL         CLEAR     78  63  59 S7        29.89F
BROKEN BOW     CLEAR     82  57  42 S13       29.92F
IMPERIAL       CLOUDY    70  60  70 SE8       29.96F
NORTH PLATTE   CLEAR     81  63  54 S8        29.91F
MCCOOK         CLEAR     81  60  48 S8        29.94F

...EASTERN NEBRASKA...

CITY           SKY/WX    TMP DP  RH WIND       PRES   REMARKS
NORFOLK        CLEAR     75  65  70 SE5       29.90F
SO SIOUX CITY  CLEAR     74  68  81 W3        29.89F
TEKAMAH        CLEAR     73  67  81 CALM      29.89F
COLUMBUS       CLEAR     76  67  73 SE6       29.91F
ALBION         CLEAR     77  69  75 S5        29.91F
OMAHA EPPLEY   CLEAR     76  63  64 NW6       29.90F
OFFUTT AFB     CLEAR     79  59  49 W5        29.90S
MILLARD        CLEAR     79  63  57 CALM      29.91F
LINCOLN        CLEAR     79  64  60 S5        29.92F
NEBRASKA CITY  CLEAR     76  63  63 W3        29.93S
BEATRICE       CLEAR     82  63  53 CALM      29.93F
FALLS CITY     CLEAR     78  61  55 NW3       29.91F

...NORTHERN KANSAS...

CITY           SKY/WX    TMP DP  RH WIND       PRES   REMARKS
GOODLAND       CLEAR     79  62  56 S9        29.99F
HILL CITY      CLEAR     84  55  36 SE7       29.95F
NORTON         CLEAR     81  46  30 SE6       29.95
PHILLIPSBURG   CLEAR     82  55  39 SE5       29.95S
SMITH CENTER   MOCLDY    79  63  57 E5        29.95F
HAYS           CLEAR     81  56  42 SE10      29.96F
RUSSELL        CLEAR     81  56  42 S8        29.96F
CONCORDIA      CLEAR     77  68  73 SE5       29.94F
SALINA         CLEAR     84  57  39 S7        29.95S
TOPEKA         CLEAR     79  61  53 W3        29.93S



USA.gov is the U.S. government's official web portal to all federal, state and local government web resources and services.